Temp
10 10 10 10 10 10 10 11 12 12 13 13 13 13 12 12 11 11 11 11 11 10 10 10 10 9 9 9 8 8 8 8 8 8 8 7 7 7 7 7 7 7 7 7 7 6 6 6 6 6 5 5 5 5 4 4 4 4 4 3 3 3 3 3 3 3 2 2 2
10 10 10 10 10 11 11 11 12 13 13 13 13 13 12 12 11 11 10 10 10 10 10 10 9 9 9 8 8 8 8 8 8 8 7 7 7 7 7 7 7 7 7 7 6 6 6 6 6 5 5 5 5 4 4 4 4 4 4 3 3 3 3 3 3 2 2 2 2
10 10 10 11 11 11 11 12 12 13 13 13 13 12 12 11 11 10 10 10 10 10 10 9 9 9 8 8 8 8 8 8 8 7 7 7 7 7 7 7 7 7 6 6 6 6 6 6 6 5 5 5 5 4 4 4 4 4 3 3 3 3 3 3 2 2 2 2 2
10 10 11 11 11 11 12 13 13 13 13 12 12 12 11 11 11 10 10 10 10 10 10 9 9 8 8 8 8 8 8 7 7 7 7 7 7 7 7 6 6 6 6 6 6 6 6 6 5 5 5 5 4 4 4 4 4 3 3 3 3 3 3 2 2 2 2 2 2
10 11 11 11 12 12 13 14 13 13 12 12 11 11 11 10 10 10 10 10 10 9 9 9 9 8 8 8 8 8 7 7 7 7 7 7 7 6 6 6 6 6 6 6 6 6 6 5 5 5 5 4 4 4 4 4 4 3 3 3 3 3 2 2 2 2 2 1 1
10 11 11 11 12 13 13 13 13 13 12 12 11 11 10 10 10 10 10 10 9 9 9 9 8 8 8 8 8 7 7 7 7 7 7 7 6 6 6 6 6 6 6 6 6 5 5 5 5 5 4 4 4 4 4 4 3 3 3 3 2 2 2 2 2 1 1 1 1
11 11 11 12 13 13 13 13 13 12 12 11 11 11 10 10 10 10 10 10 9 9 8 8 8 8 8 8 7 7 7 7 7 7 7 6 6 6 6 6 6 6 6 6 5 5 5 5 5 4 4 4 4 4 3 3 3 3 3 2 2 2 2 2 1 1 1 1 1
11 11 12 12 13 13 13 13 12 12 12 11 11 11 11 11 10 10 10 9 9 8 8 8 8 8 8 8 7 7 7 7 7 7 6 6 6 6 6 6 6 6 6 5 5 5 5 5 4 4 4 4 3 3 3 3 3 3 2 2 2 2 1 1 1 1 1 1 1
11 11 12 12 13 13 13 12 12 12 12 11 11 11 11 10 10 10 10 9 9 8 8 8 8 8 8 7 7 7 7 7 7 7 6 6 6 6 6 6 6 5 5 5 5 5 5 4 4 4 4 3 3 3 3 3 2 2 2 2 1 1 1 1 1 1 1 1 1
11 11 12 12 12 12 12 12 12 12 11 11 10 10 10 10 10 10 9 9 9 8 8 8 8 8 7 7 7 7 7 7 7 6 6 6 6 6 6 6 5 5 5 5 5 4 4 4 4 4 3 3 3 3 3 2 2 2 1 1 1 1 1 1 1 1 1 0 0
11 11 12 12 12 12 12 12 11 11 11 10 10 10 10 10 10 9 9 9 8 8 8 8 8 7 7 7 7 7 7 7 7 6 6 6 6 6 6 5 5 5 5 5 4 4 4 4 4 3 3 3 3 3 2 2 2 1 1 1 1 1 1 1 1 0 0 0 0
11 11 12 12 12 12 11 11 11 10 10 10 10 9 9 9 9 9 9 9 8 8 8 7 7 7 7 7 7 7 7 7 6 6 6 6 6 6 5 5 5 5 5 4 4 4 4 4 3 3 3 3 2 2 2 2 1 1 1 1 1 1 1 0 0 0 0 0 0
11 11 11 11 11 11 11 11 10 10 10 9 9 9 9 9 9 9 9 8 8 8 7 7 7 7 7 7 7 7 7 6 6 6 6 6 6 5 5 5 5 5 4 4 4 4 4 3 3 3 3 2 2 2 2 1 1 1 1 1 1 0 0 0 0 0 -0 -0 -0
11 11 11 11 11 11 10 10 10 9 9 9 9 9 9 8 8 8 8 8 8 8 7 7 7 7 7 7 7 6 6 6 6 6 6 6 5 5 5 5 5 4 4 4 4 3 3 3 3 3 2 2 2 2 1 1 1 1 1 0 0 0 0 -0 -0 -0 -0 -0 -0
11 11 11 10 10 10 10 10 9 9 9 9 8 8 8 8 8 8 8 8 8 8 7 7 7 7 6 6 6 6 6 6 6 6 6 5 5 5 5 5 4 4 4 3 3 3 3 3 3 2 2 2 2 1 1 1 1 0 0 0 0 -0 -0 -0 -0 -0 -0 -1 -1
10 10 10 10 10 10 10 9 9 9 8 8 8 8 8 8 7 7 8 8 8 7 7 7 7 7 6 6 6 6 6 6 6 6 5 5 5 5 5 4 4 4 3 3 3 3 3 2 2 2 2 2 1 1 1 1 0 0 0 0 -0 -0 -0 -0 -1 -1 -1 -1 -1
9 9 9 9 10 10 9 9 9 8 8 8 8 8 7 7 7 7 7 7 7 7 7 7 6 6 6 6 6 6 6 6 5 5 5 5 5 5 4 4 4 4 3 3 3 2 2 2 2 2 1 1 1 1 1 0 0 0 0 -0 -0 -0 -1 -1 -1 -1 -1 -1 -1
9 9 9 9 10 10 9 9 8 8 8 7 7 7 7 7 7 7 7 7 7 7 7 6 6 6 6 6 6 6 6 5 5 5 5 5 5 4 4 4 4 3 3 3 3 2 2 2 2 1 1 1 1 1 0 0 0 0 -0 -0 -0 -1 -1 -1 -1 -1 -1 -1 -1
8 9 9 9 9 9 9 9 8 8 7 7 7 7 7 7 7 7 7 6 7 7 7 6 6 6 6 6 6 6 5 5 5 5 5 5 4 4 4 3 3 3 3 3 2 2 2 2 2 1 1 1 1 0 0 0 0 -0 -0 -0 -1 -1 -1 -1 -1 -1 -1 -1 -1
8 8 9 9 9 9 9 8 8 7 7 7 7 7 6 7 7 7 6 6 6 6 6 6 6 6 5 5 5 5 5 5 5 5 4 4 4 4 3 3 3 3 3 2 2 2 2 2 1 1 1 1 0 0 0 0 -0 -0 -0 -0 -1 -1 -1 -1 -1 -1 -1 -2 -2
8 8 9 9 9 9 8 8 7 7 7 6 6 6 6 6 6 6 6 6 6 6 6 6 6 5 5 5 5 5 5 5 4 4 4 4 4 3 3 3 3 3 2 2 2 2 2 1 1 1 0 0 0 0 0 -0 -0 -0 -0 -1 -1 -1 -1 -1 -1 -2 -2 -2 -2
8 8 8 9 9 8 8 7 7 6 6 6 6 6 6 6 6 6 6 6 6 5 5 5 5 5 5 5 5 5 4 4 4 4 4 3 3 3 3 3 3 2 2 2 2 2 2 1 1 0 0 0 0 0 -0 -0 -0 -0 -1 -1 -1 -1 -1 -2 -2 -2 -2 -2 -2
8 8 8 8 8 8 7 7 6 6 6 6 6 6 6 6 6 6 6 5 5 5 5 5 5 5 5 5 4 4 4 4 4 3 3 3 3 3 3 3 2 2 2 2 2 2 1 1 1 0 0 0 0 -0 -0 -0 -0 -1 -1 -1 -1 -1 -2 -2 -2 -2 -2 -2 -2
7 8 8 8 7 7 6 6 6 6 5 5 5 6 6 6 5 5 5 5 5 5 5 5 5 5 4 4 4 4 4 3 3 3 3 3 3 3 3 2 2 2 2 2 2 1 1 1 0 0 0 0 0 -0 -0 -0 -1 -1 -1 -1 -1 -2 -2 -2 -2 -2 -2 -2 -3
7 7 7 7 7 6 6 6 6 5 5 5 5 5 5 5 5 5 5 5 5 5 5 5 4 4 4 4 4 4 3 3 3 3 3 3 3 2 2 2 2 2 2 2 2 1 0 0 0 0 0 0 -0 -0 -0 -0 -1 -1 -1 -1 -2 -2 -2 -2 -2 -2 -2 -2 -3
7 7 6 6 6 6 6 5 5 5 5 5 5 5 5 5 5 5 5 5 4 4 4 4 4 4 4 4 4 3 3 3 3 3 3 3 2 2 2 2 2 2 2 2 1 1 0 0 0 0 0 0 -0 -0 -0 -1 -1 -1 -1 -1 -2 -2 -2 -2 -2 -2 -2 -3 -3
6 6 6 6 6 5 5 5 5 5 5 5 5 5 5 5 4 4 4 4 4 4 4 4 4 4 4 3 3 3 3 3 3 3 3 3 2 2 2 2 2 2 1 1 1 1 0 0 0 0 0 -0 -0 -0 -0 -1 -1 -1 -1 -2 -2 -2 -2 -2 -2 -2 -3 -3 -3
6 6 5 5 5 5 5 5 5 5 5 5 5 5 4 4 4 4 4 4 4 4 4 3 3 3 3 3 3 3 3 3 3 3 3 2 2 2 2 2 1 1 1 1 1 0 -0 -0 -0 -0 -0 -0 -0 -0 -1 -1 -1 -1 -1 -2 -2 -2 -2 -2 -2 -3 -3 -3 -3
5 5 5 5 5 5 5 5 5 5 5 5 4 4 4 4 4 4 4 4 3 3 3 3 3 3 3 3 3 3 3 3 3 3 2 2 2 2 2 1 1 1 1 1 0 0 -0 -0 -0 -0 -0 -0 -0 -0 -1 -1 -1 -1 -2 -2 -2 -2 -2 -2 -2 -3 -3 -3 -3
5 5 5 5 5 5 5 5 5 4 4 4 4 4 4 4 4 3 3 3 3 3 3 3 3 3 3 3 3 3 3 3 2 2 2 2 2 1 1 1 1 1 1 1 0 -0 -1 -1 -1 -1 -1 -1 -1 -1 -1 -1 -1 -2 -2 -2 -2 -2 -2 -2 -3 -3 -3 -3 -3
5 5 5 5 5 4 4 4 4 4 4 4 4 4 3 3 3 3 3 3 3 3 3 3 3 3 3 2 2 2 2 2 2 2 2 2 1 1 1 1 0 0 0 0 -0 -1 -1 -1 -1 -1 -1 -1 -1 -1 -1 -1 -2 -2 -2 -2 -2 -2 -2 -2 -3 -3 -3 -3 -3
5 5 5 5 4 4 4 4 4 4 4 4 3 3 3 3 3 3 3 3 3 3 3 3 3 3 2 2 2 2 2 2 2 2 2 1 1 1 0 0 0 0 0 -0 -1 -1 -1 -1 -1 -1 -1 -1 -1 -1 -1 -2 -2 -2 -2 -2 -2 -2 -2 -3 -3 -3 -3 -3 -3
5 5 5 4 4 4 4 4 4 3 3 3 3 3 3 3 3 3 3 3 3 3 3 3 2 2 2 2 2 2 2 2 2 1 1 1 1 0 0 0 -0 -0 -0 -1 -1 -1 -1 -1 -1 -1 -1 -1 -1 -1 -2 -2 -2 -2 -2 -2 -2 -2 -2 -3 -3 -3 -2 -3 -3
4 4 4 4 4 4 3 3 3 3 3 3 3 3 3 3 3 3 3 3 3 3 3 2 2 2 2 2 2 2 2 1 1 1 1 0 0 0 -0 -0 -0 -1 -1 -1 -1 -1 -1 -2 -2 -2 -1 -1 -2 -2 -2 -2 -2 -2 -2 -2 -2 -2 -2 -3 -2 -2 -2 -3 -3
4 4 4 4 4 4 3 3 3 3 3 3 3 3 3 3 3 2 2 2 2 2 2 2 2 2 2 2 2 2 1 1 1 0 0 0 0 -0 -0 -0 -1 -1 -1 -1 -1 -1 -2 -2 -2 -2 -2 -2 -2 -2 -2 -2 -2 -2 -2 -2 -2 -2 -2 -2 -2 -2 -3 -3 -3
5 4 4 4 4 3 3 3 3 3 3 3 3 3 3 3 2 2 2 2 2 2 2 2 2 2 2 2 2 1 1 1 0 0 -0 -0 -0 -0 -0 -1 -1 -1 -1 -1 -2 -2 -2 -2 -2 -2 -2 -2 -2 -2 -2 -2 -2 -2 -2 -2 -2 -2 -2 -2 -2 -3 -3 -3 -3
5 5 4 4 4 3 3 3 3 3 3 3 3 3 2 2 2 2 2 2 2 2 2 2 2 2 2 1 1 1 0 0 0 -0 -0 -0 -1 -1 -1 -1 -1 -1 -2 -2 -2 -2 -2 -2 -2 -2 -2 -2 -2 -2 -2 -2 -2 -2 -2 -2 -2 -2 -2 -2 -3 -3 -3 -4 -4
5 5 4 4 4 3 3 3 3 3 3 3 2 2 2 2 2 2 2 2 2 2 2 2 2 2 1 1 1 0 0 -0 -0 -0 -0 -1 -1 -1 -1 -1 -2 -2 -2 -2 -2 -2 -2 -2 -2 -2 -2 -2 -2 -2 -2 -2 -2 -2 -2 -2 -2 -2 -2 -3 -3 -3 -4 -4 -4
5 5 4 4 4 3 3 3 3 3 3 3 2 2 2 2 2 2 2 2 2 2 2 2 2 1 1 1 0 0 -0 -0 -0 -1 -1 -1 -1 -2 -2 -2 -2 -2 -2 -2 -2 -2 -3 -3 -3 -2 -2 -2 -2 -2 -2 -2 -2 -2 -2 -2 -2 -2 -2 -3 -3 -4 -4 -4 -4
4 4 4 4 4 3 3 3 3 3 3 2 2 2 2 2 2 2 2 2 2 2 2 2 1 1 1 1 0 0 -0 -0 -1 -1 -1 -1 -2 -2 -2 -2 -2 -2 -2 -3 -3 -3 -3 -3 -3 -3 -2 -2 -2 -2 -2 -2 -2 -2 -2 -2 -2 -2 -3 -3 -4 -4 -4 -4 -4
4 4 4 4 4 3 3 3 3 2 2 2 2 2 2 2 2 2 2 2 2 2 2 1 1 1 1 0 0 0 -0 -0 -1 -1 -1 -2 -2 -2 -2 -2 -3 -3 -3 -3 -3 -3 -3 -3 -3 -3 -2 -2 -2 -2 -2 -2 -2 -2 -2 -2 -2 -3 -3 -4 -4 -4 -4 -4 -4
Height
765 767 769 771 772 774 776 778 779 781 782 784 786 787 789 791 793 795 797 798 799 801 802 803 804 805 806 806 807 807 808 808 808 808 809 809 809 808 808 809 809 809 809 809 809 809 809 809 809 809 809 809 809 809 808 808 808 808 807 807 807 806 806 806 806 805 805 804 804
765 766 768 771 772 774 776 778 779 781 783 784 786 788 790 791 793 795 797 798 799 800 801 803 804 805 806 806 807 807 807 808 808 808 808 808 808 808 808 808 808 809 809 809 809 809 809 809 809 809 809 809 808 808 808 808 807 807 807 806 806 806 806 805 805 804 804 803 803
765 767 769 771 772 774 776 777 779 781 783 785 786 788 790 792 793 795 796 798 799 800 801 802 803 804 805 806 806 807 807 807 808 808 808 808 808 808 808 808 808 808 808 809 809 809 809 809 809 809 808 808 808 808 807 807 807 806 806 806 805 805 805 804 804 803 803 802 802
765 767 769 771 772 774 775 777 779 781 783 785 786 788 790 792 793 795 796 797 799 800 801 802 803 804 805 806 806 806 807 807 807 808 808 808 808 808 808 808 808 808 808 808 808 808 808 808 808 808 808 808 807 807 807 806 806 806 806 805 805 804 804 803 803 802 802 801 801
766 767 769 771 772 774 775 776 778 781 782 784 786 788 790 792 793 794 796 797 798 800 801 802 803 804 805 805 806 806 806 807 807 807 808 808 808 808 808 808 808 808 808 808 808 808 808 808 808 808 807 807 807 806 806 806 806 805 805 804 804 803 803 803 802 802 801 801 800
766 767 769 771 772 774 775 777 779 781 782 784 786 788 790 791 793 794 795 796 798 799 801 801 802 803 804 805 805 806 806 806 807 807 807 807 807 808 808 808 808 808 808 808 808 808 808 807 807 807 807 806 806 806 806 805 805 804 804 804 803 803 802 802 801 801 801 800 800
765 767 769 771 772 774 775 777 779 781 782 784 786 788 789 791 792 793 795 796 798 799 800 801 802 803 804 804 805 805 806 806 806 807 807 807 807 807 808 808 808 808 808 808 807 807 807 807 807 806 806 806 806 805 805 804 804 804 803 803 802 802 801 801 801 800 800 799 798
765 767 769 771 772 774 775 777 779 781 783 785 786 788 789 790 791 793 794 796 797 799 800 801 802 802 803 804 805 805 806 806 806 806 806 807 807 807 807 807 807 807 807 807 807 807 807 806 806 806 806 805 805 804 804 804 803 803 802 802 802 801 801 800 800 799 799 798 797
765 767 769 771 772 774 776 777 779 781 783 785 786 788 789 790 791 793 794 796 797 798 799 801 801 802 803 804 804 805 805 805 806 806 806 806 807 807 807 807 807 807 807 807 806 806 806 806 806 805 805 805 804 804 803 803 802 802 801 801 801 801 800 800 799 798 797 797 796
765 767 769 771 773 775 776 778 780 781 783 785 786 788 789 790 791 792 794 795 796 798 799 800 801 802 802 803 804 804 805 805 805 806 806 806 806 806 806 807 806 806 806 806 806 806 806 805 805 805 804 804 803 803 802 802 802 801 801 801 800 800 799 798 798 797 796 796 795
765 767 769 771 773 775 776 778 780 782 783 785 786 788 789 790 791 792 794 795 796 797 799 800 801 801 802 803 803 804 804 804 805 805 806 806 806 806 806 806 806 806 806 806 806 805 805 805 804 804 804 803 803 802 802 801 801 801 800 800 799 798 798 797 797 796 795 794 793
765 767 769 771 773 775 776 778 780 782 784 785 786 788 789 790 791 792 793 795 796 797 798 799 800 801 801 802 803 803 804 804 805 805 805 806 806 806 806 806 806 805 805 805 805 805 804 804 804 803 803 802 802 801 801 801 800 800 799 799 798 797 796 796 795 795 794 793 792
765 767 769 771 773 775 776 778 780 782 783 785 786 787 789 790 791 792 793 794 796 796 798 799 800 801 801 802 802 803 803 804 804 805 805 805 805 805 805 805 805 805 805 804 804 804 804 803 803 802 802 802 801 801 800 800 799 799 798 797 797 796 795 795 794 793 793 792 791
765 767 769 771 773 775 776 778 780 782 783 785 786 787 788 790 791 792 793 794 795 796 797 798 799 800 801 801 802 802 803 803 804 804 805 805 805 805 805 805 804 804 804 804 803 803 803 802 802 802 801 801 801 800 800 799 798 798 797 796 796 795 794 793 793 792 791 791 790
765 767 769 771 773 775 776 778 780 782 783 785 786 787 788 790 791 792 793 794 795 796 797 798 799 800 801 801 801 802 803 803 804 804 804 804 804 804 804 804 804 804 803 803 803 802 802 802 801 801 801 800 800 799 799 798 797 797 796 796 795 794 793 792 792 791 790 790 789
765 767 769 771 773 775 776 778 780 781 783 784 786 787 788 789 791 792 793 794 795 796 797 797 798 799 800 801 801 802 802 803 803 803 804 804 804 804 803 803 803 803 803 802 802 802 801 801 801 800 800 799 799 798 798 797 796 796 795 795 794 793 792 791 791 790 790 789 788
765 767 770 771 773 775 776 778 780 781 783 784 786 787 788 789 791 792 793 794 795 796 796 797 798 799 800 800 801 801 802 802 803 803 803 803 803 803 803 803 803 802 802 802 801 801 801 801 800 800 799 799 798 797 797 796 796 795 794 793 793 792 791 791 790 790 789 788 787
766 768 770 771 773 775 776 778 780 781 783 784 786 787 788 789 791 792 793 794 795 795 796 797 798 799 799 800 801 801 802 802 802 802 802 802 802 802 802 802 802 802 801 801 801 801 800 800 799 799 798 798 797 796 796 795 795 794 793 792 792 791 791 790 790 789 788 787 786
766 768 770 771 773 775 776 778 780 781 783 784 786 787 788 789 791 791 792 794 795 795 796 797 798 798 799 800 800 801 801 802 802 802 802 802 802 802 801 801 801 801 801 801 800 800 800 799 799 798 797 797 796 796 795 794 794 793 792 791 791 790 790 789 789 788 787 786 785
766 768 770 771 773 775 776 778 780 781 783 785 786 787 788 790 791 791 792 793 795 795 796 797 797 798 799 799 800 800 801 801 801 801 801 801 801 801 801 801 801 800 800 800 800 799 799 798 798 797 796 796 795 795 794 793 792 792 791 791 790 790 789 788 788 787 786 785 784
766 768 770 771 773 775 777 778 780 782 783 785 786 787 789 790 791 792 792 793 794 795 796 797 797 798 798 799 799 800 800 801 801 801 801 801 801 801 800 800 800 800 800 799 799 798 798 797 797 796 796 795 794 794 793 792 791 791 790 790 789 789 788 787 787 786 785 784 783
767 768 770 772 773 775 777 779 781 782 784 785 786 788 789 790 791 792 793 794 794 795 796 796 797 798 798 799 799 799 800 800 800 800 800 800 800 800 800 800 799 799 799 798 798 797 797 796 796 795 795 794 793 793 792 791 791 790 789 789 788 787 787 786 786 785 784 783 782
767 769 771 772 774 776 777 779 781 782 784 786 787 788 789 790 791 792 793 794 794 795 796 796 797 797 798 798 799 799 799 799 800 800 800 800 799 799 799 799 799 798 798 798 797 796 796 795 795 794 794 793 792 792 791 791 790 789 788 788 787 786 786 785 784 784 783 782 781
767 769 771 773 774 776 778 780 781 783 784 786 787 788 789 790 791 792 793 794 794 795 796 796 797 797 797 798 798 799 799 799 799 799 799 799 799 799 798 798 798 798 797 797 796 796 795 795 794 793 793 792 791 791 791 790 789 788 787 787 786 785 785 784 783 783 782 781 780
768 770 771 773 775 776 778 780 781 783 785 786 787 788 789 790 791 792 793 794 794 795 795 796 796 797 797 798 798 798 799 799 799 799 798 798 798 798 798 797 797 797 796 796 795 795 795 794 794 793 792 791 791 790 790 789 788 787 786 786 785 784 783 782 782 781 781 780 779
768 770 771 773 775 777 779 781 782 783 785 786 787 788 789 790 791 792 793 793 794 795 795 796 796 796 797 797 798 798 798 798 798 798 798 798 797 797 797 797 796 796 796 795 794 794 794 793 793 792 792 791 790 789 789 788 787 786 786 785 784 783 782 781 781 780 779 778 778
769 770 772 774 776 777 779 781 782 784 785 786 787 788 789 790 791 792 793 793 794 795 795 796 796 796 796 797 797 797 798 798 798 797 797 797 797 796 796 796 796 795 795 794 793 793 793 792 792 791 791 790 789 789 788 787 786 786 785 784 783 782 782 781 780 779 778 777 776
769 771 772 775 776 778 780 781 783 784 786 786 788 789 790 791 791 792 793 793 794 794 795 795 796 796 796 797 797 797 797 797 797 797 797 796 796 796 796 795 795 794 794 793 793 792 792 791 791 791 790 790 789 788 787 786 785 785 784 783 782 781 781 780 779 778 777 776 775
769 771 773 775 777 779 780 782 783 785 786 787 788 789 790 791 791 792 793 793 794 794 795 795 795 796 796 796 796 797 797 796 796 796 796 796 796 795 795 794 794 793 793 792 792 791 791 791 790 790 789 789 788 787 786 785 784 784 783 782 781 781 780 779 778 777 776 775 774
770 772 774 775 777 779 781 782 784 785 786 787 788 789 790 791 791 792 793 793 794 794 794 795 795 796 796 796 796 796 796 796 796 796 796 795 795 795 794 794 793 792 792 791 791 791 790 790 789 789 788 787 787 786 785 784 783 783 782 781 781 780 779 778 777 776 775 774 773
771 772 774 776 778 780 781 783 784 785 786 787 788 789 790 791 791 792 793 793 794 794 794 795 795 796 796 796 796 796 796 796 795 795 795 795 794 794 793 793 792 792 791 791 790 790 790 789 788 788 787 786 786 785 784 783 782 782 781 780 780 779 778 777 776 775 774 773 772
771 773 775 776 778 780 781 783 784 785 786 787 788 789 790 791 791 792 793 793 793 794 795 795 795 795 795 795 795 795 795 795 795 795 794 794 794 793 792 792 791 791 790 790 790 789 789 788 787 787 786 786 785 784 783 782 781 781 780 779 779 778 777 776 775 774 773 772 771
772 774 775 777 779 780 782 783 785 786 787 788 789 789 790 791 791 792 792 793 794 794 795 795 795 795 795 795 795 795 795 794 794 794 794 793 793 792 792 791 791 790 790 789 789 788 788 787 786 786 785 785 784 783 782 781 780 780 779 778 777 776 776 775 774 773 771 771 770
773 774 776 777 779 781 782 783 785 786 787 788 789 790 790 791 791 792 792 793 794 794 794 794 794 794 794 794 794 794 794 794 794 793 793 792 792 791 791 791 790 790 789 788 788 787 787 786 786 785 784 784 783 782 781 780 779 778 778 777 776 775 775 774 772 771 770 769 769
773 775 776 778 779 781 782 784 785 786 787 788 789 789 790 791 791 792 792 793 793 794 794 794 794 794 794 794 794 794 794 793 793 793 792 792 791 791 791 790 789 789 788 788 787 786 786 785 785 784 783 782 781 781 780 779 778 777 776 776 775 774 773 772 771 770 769 768 767
774 775 776 778 780 781 782 784 785 786 787 788 788 789 790 791 791 792 792 793 793 793 793 793 794 794 793 793 793 793 793 793 792 792 791 791 791 790 790 789 789 788 787 787 786 786 785 785 784 783 782 781 781 780 779 778 777 776 775 774 773 772 771 771 769 768 767 767 766
774 775 777 778 780 781 783 784 785 786 787 787 788 789 790 791 791 792 792 792 793 793 793 793 793 793 793 793 793 793 792 792 792 791 791 790 790 789 789 788 788 787 787 786 786 785 784 784 783 782 781 781 780 779 777 777 776 775 774 773 772 771 770 769 768 767 766 766 765
775 776 777 779 780 781 783 784 785 786 786 787 788 789 790 791 791 791 792 792 792 792 793 793 793 793 793 793 793 792 792 791 791 791 790 790 789 789 788 788 787 786 786 786 785 784 784 783 782 781 781 780 779 778 777 776 775 774 773 772 771 770 769 768 767 766 765 765 764
776 777 778 779 780 781 783 784 785 786 786 787 788 789 790 790 791 791 791 792 792 792 792 792 792 793 792 792 792 792 791 791 791 790 790 789 789 788 788 787 786 786 786 785 784 783 783 782 781 781 780 779 778 777 776 775 774 773 772 771 770 768 767 766 766 765 764 763 763
776 777 778 779 781 781 783 784 785 786 787 787 788 789 790 790 790 791 791 791 792 792 792 792 792 792 792 792 792 791 791 791 790 790 789 789 788 788 787 787 786 786 785 784 783 783 782 781 781 780 779 778 777 776 775 774 773 772 771 770 768 767 766 765 765 764 763 762 761
777 778 779 780 781 782 783 784 785 786 787 787 788 789 789 790 790 791 791 791 791 791 792 792 792 792 792 791 791 791 791 790 790 789 789 788 788 787 787 786 786 785 784 783 783 782 781 781 780 779 778 777 776 775 774 773 772 771 770 768 767 766 765 764 763 763 762 761 759
Wind_Speed
35 37 38 38 37 36 35 35 34 34 33 31 30 28 26 25 24 23 22 20 19 17 16 14 13 12 11 10 8 7 6 5 4 4 3 2 2 2 1 1 1 2 2 3 4 5 6 7 7 8 8 8 8 8 8 9 9 9 9 9 9 10 10 10 10 10 10 10 10
37 38 39 38 37 36 35 34 34 33 31 30 28 27 26 24 24 23 21 19 18 17 16 15 13 12 11 10 8 7 6 5 4 3 3 2 2 1 1 0 1 2 3 4 5 6 6 7 8 8 8 9 9 9 9 10 10 10 10 10 10 11 11 11 11 11 11 10 10
38 38 38 37 36 35 35 35 34 32 31 29 27 26 25 24 23 22 21 19 17 16 15 15 13 12 11 10 8 7 6 5 4 3 3 2 2 1 0 1 2 3 3 4 5 6 7 8 8 8 9 9 9 9 10 10 11 11 11 11 11 12 11 11 11 11 11 11 10
37 37 36 35 35 35 36 35 34 32 30 29 27 26 25 24 23 21 20 18 16 15 15 14 13 12 11 9 8 7 6 5 4 3 3 2 1 1 1 1 2 3 4 5 6 7 7 8 9 9 9 10 10 10 11 11 11 11 11 12 12 12 11 11 11 11 10 10 11
36 36 36 35 35 36 36 35 33 32 30 29 28 27 25 24 22 21 19 18 17 15 14 13 13 12 10 9 8 7 6 5 4 3 3 2 1 1 1 2 3 4 5 6 6 7 8 9 9 9 10 10 11 11 11 12 12 12 12 12 12 11 11 10 10 10 10 10 11
36 36 36 35 36 35 35 34 32 31 30 29 28 27 25 23 22 20 19 18 17 16 14 13 12 11 10 9 8 7 6 5 4 3 2 2 1 1 2 2 3 4 5 6 7 8 8 9 10 10 10 11 11 12 12 12 12 12 12 11 11 11 10 10 9 10 10 10 11
36 36 35 35 35 35 34 33 32 31 29 28 27 26 24 23 21 20 19 18 17 16 15 13 12 11 10 9 8 7 6 5 4 3 2 2 1 2 2 3 4 5 6 7 7 8 9 10 10 11 11 11 11 12 12 12 12 12 12 11 10 10 9 9 9 10 10 11 12
37 36 36 35 35 34 34 33 32 30 29 27 26 24 23 21 20 19 18 18 17 16 15 13 12 11 9 8 8 7 6 5 4 3 2 2 2 2 3 4 5 5 6 7 8 9 10 10 11 11 11 12 12 12 12 12 12 12 11 10 10 9 9 9 9 10 11 12 13
36 35 35 35 34 34 33 32 30 29 28 26 25 23 21 20 19 19 18 18 17 16 14 13 12 10 9 8 7 7 6 5 4 3 2 2 2 3 3 4 5 6 7 8 9 9 10 11 11 11 12 12 12 12 12 12 11 10 10 10 10 10 9 10 10 11 12 13 14
35 35 34 34 34 33 32 30 29 27 26 26 24 22 21 20 19 18 18 17 16 15 14 13 11 10 9 8 7 6 5 4 4 3 2 2 2 3 4 5 6 7 8 9 9 10 11 11 11 11 12 12 11 11 11 11 10 10 9 10 10 10 11 11 11 12 13 14 15
36 35 34 34 33 33 31 30 29 27 26 25 24 22 21 20 19 18 17 16 16 15 14 12 11 10 9 8 7 6 5 4 3 3 2 2 3 4 5 6 7 8 9 9 10 11 11 11 11 11 11 11 11 10 10 10 10 9 10 10 11 12 12 13 13 14 14 15 16
35 35 34 34 33 32 31 30 29 28 26 25 24 23 21 20 19 18 17 16 16 15 13 12 10 9 8 7 6 5 4 4 3 2 2 2 3 4 6 7 8 9 9 10 11 11 11 12 12 11 11 11 10 10 9 9 9 10 10 11 12 13 14 14 15 15 15 16 16
35 34 34 34 33 32 31 30 29 28 27 25 24 23 21 20 18 17 17 16 16 15 13 12 10 8 7 6 5 5 4 3 3 2 2 3 4 5 6 7 8 9 10 10 11 11 11 12 11 11 11 10 9 9 9 9 10 11 12 13 13 14 15 15 16 16 16 16 17
35 34 34 34 33 32 31 31 30 28 27 26 24 23 21 20 18 17 16 16 15 14 13 11 10 8 7 6 5 4 3 3 2 2 2 3 5 6 7 8 9 9 10 10 11 11 11 11 11 11 10 9 9 9 9 9 10 11 12 13 14 15 15 16 16 16 17 17 18
34 34 34 34 33 32 31 31 30 28 27 26 24 23 22 20 19 17 16 15 14 13 12 11 9 8 7 5 4 4 3 2 1 2 3 4 5 7 7 8 9 10 10 10 10 10 10 10 10 10 9 9 9 9 9 10 11 12 13 14 14 15 15 16 16 17 17 18 19
34 34 34 33 33 32 31 31 30 28 27 26 24 23 22 20 19 17 16 15 14 12 11 10 9 8 6 5 4 3 2 1 1 2 3 5 6 7 8 9 9 9 10 10 10 10 10 9 9 9 8 9 9 10 10 11 12 13 13 14 14 15 15 16 16 17 17 18 19
34 34 34 33 33 32 31 30 29 28 27 26 24 23 22 20 19 17 15 14 13 12 11 9 8 7 6 5 4 3 2 1 2 3 4 5 6 7 8 9 9 10 10 10 10 9 9 8 8 8 8 8 9 10 11 12 13 13 14 14 14 15 15 15 16 17 18 19 20
34 34 34 33 32 31 30 30 29 28 26 25 24 22 21 20 18 16 14 13 11 11 10 9 8 7 6 5 4 3 1 1 2 3 5 6 7 7 8 9 9 9 10 10 10 9 9 8 8 7 8 8 9 10 11 12 13 14 14 15 15 15 15 16 16 17 19 20 20
34 34 33 33 32 31 30 29 28 27 26 24 23 21 20 19 17 16 14 12 10 9 9 9 8 7 6 5 3 2 1 2 3 4 5 6 7 7 8 8 9 10 10 10 10 10 9 8 8 8 8 9 10 11 12 13 13 14 15 15 15 15 15 16 17 18 20 20 20
34 34 33 32 31 30 29 28 27 26 25 23 22 21 19 17 16 15 14 12 11 9 8 8 8 7 5 4 3 1 1 2 3 4 5 6 7 7 8 8 9 9 10 10 10 9 9 8 8 8 9 10 11 12 13 13 14 15 15 15 15 15 16 17 18 20 20 21 20
33 33 33 32 31 30 29 28 26 25 24 23 21 20 18 16 15 14 13 12 10 9 8 8 7 6 5 3 2 0 1 2 3 4 5 6 7 7 8 9 9 10 10 10 10 10 9 9 9 9 10 10 11 12 13 14 15 15 15 15 16 16 17 18 19 21 21 21 19
33 33 32 31 30 29 28 27 26 25 23 22 20 19 17 16 14 13 12 11 10 9 8 7 6 5 4 2 1 1 2 3 3 4 5 6 7 7 8 9 10 10 10 10 10 10 10 9 9 9 10 11 12 13 14 14 15 15 16 16 16 17 18 19 20 22 22 21 19
33 33 32 31 30 29 28 27 25 24 23 21 20 18 17 16 14 13 12 11 10 9 8 7 6 4 3 2 1 2 2 3 4 4 5 6 7 8 9 9 10 10 11 11 11 11 10 10 10 10 11 11 12 13 14 15 15 15 16 16 17 18 19 20 21 22 22 21 19
33 33 32 31 30 28 27 26 25 23 22 20 19 17 16 15 14 13 12 11 10 9 8 6 5 4 3 2 2 2 3 3 4 4 5 6 7 8 9 10 10 11 11 12 12 11 10 10 10 11 11 12 12 13 14 14 15 15 16 16 17 18 20 21 22 23 22 21 20
33 33 32 31 29 28 27 25 24 23 21 20 18 17 15 14 13 13 12 11 9 8 7 6 5 3 3 2 2 2 2 3 4 4 5 6 7 8 9 10 11 11 12 12 12 11 9 9 10 10 11 12 13 13 14 14 15 15 16 16 17 19 20 21 22 23 23 22 21
33 32 31 30 29 28 26 25 23 22 20 19 17 16 15 14 13 12 11 10 9 8 6 5 4 3 3 2 2 2 3 3 4 5 6 7 8 9 10 11 11 12 12 13 12 10 9 9 9 10 11 12 13 14 14 15 15 15 16 17 17 19 20 21 22 23 23 23 21
33 32 31 29 28 27 25 24 22 21 19 18 17 16 14 13 13 12 11 10 9 8 6 5 4 3 2 2 2 2 3 4 5 6 7 8 9 10 11 11 12 12 13 13 12 11 10 10 10 10 11 12 13 14 15 15 15 16 16 17 18 19 20 21 22 23 24 23 22
32 31 30 29 27 26 24 23 21 20 19 17 16 15 14 13 12 11 10 9 8 7 6 5 4 3 2 1 2 2 3 5 6 7 8 9 10 10 11 12 12 13 13 13 12 11 10 11 11 11 11 12 13 14 15 15 16 16 17 18 18 19 20 21 22 23 24 24 24
32 31 30 28 27 25 23 22 21 19 18 17 15 15 14 13 12 11 10 9 8 7 6 5 3 2 1 1 2 3 4 5 6 7 8 9 10 11 12 12 13 13 13 13 12 11 11 11 11 12 12 12 13 14 15 15 16 17 18 18 19 20 20 21 22 23 24 24 24
31 30 29 28 26 24 23 21 20 18 17 16 15 14 13 13 12 11 10 9 8 7 5 4 2 1 1 1 2 3 4 6 7 8 9 10 10 11 12 12 13 13 13 13 12 12 11 12 12 12 13 13 13 14 15 16 17 17 18 19 19 20 20 21 22 23 23 23 23
30 29 28 27 25 24 22 20 19 18 17 16 15 14 13 12 12 10 9 8 7 5 3 2 1 1 1 2 3 4 5 6 8 9 10 10 11 12 12 12 13 13 13 13 12 12 12 12 12 13 13 14 13 14 15 16 17 18 18 19 19 20 20 21 22 23 23 24 24
29 28 27 26 25 23 21 20 18 17 16 15 14 14 13 12 11 10 8 6 5 3 2 1 1 1 2 3 4 5 6 7 8 9 10 11 11 12 12 12 13 13 13 13 12 12 12 13 13 13 14 14 14 14 16 17 17 18 18 18 19 19 20 21 22 23 24 25 25
28 27 27 26 24 22 21 19 17 16 15 15 14 13 12 11 10 8 6 4 3 2 2 2 1 2 3 4 5 6 7 8 9 9 10 11 12 12 12 12 13 13 13 13 13 12 13 13 13 14 14 14 14 15 16 17 18 18 18 18 18 19 20 21 22 24 25 25 24
28 27 26 25 23 22 20 18 17 16 15 14 13 12 11 9 7 5 4 3 3 3 2 1 2 3 4 5 6 7 7 8 9 10 10 11 12 12 12 12 13 13 13 13 13 13 13 14 14 15 15 15 15 16 17 18 18 18 18 18 18 19 20 21 23 24 25 24 23
27 26 25 24 22 21 19 18 16 16 15 14 13 11 9 7 5 4 4 4 3 2 2 2 3 4 5 5 6 7 8 8 9 10 10 11 12 12 12 12 13 13 13 13 13 14 14 14 15 15 15 15 16 17 18 18 18 18 18 18 18 19 21 22 24 24 24 22 19
26 25 24 23 21 20 19 18 16 15 14 13 12 9 7 6 5 5 5 4 3 2 2 3 3 4 5 6 7 8 8 9 9 10 11 11 12 12 12 13 13 13 13 14 14 14 14 14 15 15 16 16 17 18 18 18 17 16 17 17 18 20 22 23 23 23 20 18 16
24 24 23 22 21 19 18 17 16 15 14 12 10 8 7 7 7 6 5 4 3 2 2 3 4 5 6 7 7 8 8 9 10 10 11 11 12 12 13 13 14 14 14 14 14 15 15 15 15 16 16 16 16 17 17 16 15 15 16 17 18 20 22 22 21 18 15 14 14
23 22 21 21 20 19 18 16 15 14 13 11 10 9 8 8 7 6 5 3 3 2 3 4 5 5 6 7 7 8 8 9 10 10 10 11 11 12 13 13 14 14 14 14 14 15 15 15 15 16 16 16 16 16 16 15 15 15 16 17 18 20 20 19 16 13 11 13 15
21 20 19 19 19 18 17 16 15 13 12 11 11 10 9 7 6 5 4 3 2 3 4 5 5 6 7 7 8 8 8 9 10 10 10 10 11 12 12 13 14 14 14 14 14 15 15 15 16 16 16 16 16 16 16 15 16 16 16 17 19 19 18 15 12 11 13 16 19
19 18 18 18 18 18 17 16 14 13 12 12 11 9 8 6 5 4 3 3 3 4 4 5 6 6 7 8 8 9 9 9 9 10 10 10 10 11 12 13 13 14 14 14 14 15 15 15 16 16 16 16 16 16 16 15 16 16 17 18 19 18 15 12 11 13 16 20 23
18 18 17 17 17 17 16 16 14 13 12 11 10 8 7 5 5 4 3 3 3 4 5 5 6 7 8 8 9 10 10 9 9 9 10 10 10 11 12 13 13 14 14 14 15 15 15 15 16 16 16 16 16 16 15 15 16 17 18 18 18 16 13 12 14 16 19 21 23
Wind_Direction
165 165 164 164 163 162 161 159 158 157 157 155 154 152 151 149 148 147 147 146 145 144 144 146 146 146 146 147 148 147 146 143 140 137 135 128 118 108 93 67 25 1 350 344 338 335 332 330 329 328 327 325 325 324 323 323 323 324 325 326 326 326 326 326 325 324 323 321 320
164 164 164 163 162 161 160 158 157 156 155 154 152 150 148 147 146 145 145 145 145 145 145 145 146 146 146 146 148 147 145 143 143 143 142 137 133 127 109 26 343 337 335 332 330 328 326 325 324 323 322 322 321 322 321 321 322 324 325 326 325 325 325 325 323 322 321 320 318
164 164 163 163 162 160 158 157 156 155 154 152 149 147 146 145 144 143 143 143 144 146 146 145 145 146 147 147 148 147 147 145 146 148 149 149 149 156 200 314 323 324 325 325 323 323 321 321 320 320 320 320 321 321 322 322 324 325 326 326 325 325 325 324 322 321 320 319 318
164 163 162 162 161 160 158 157 156 154 152 149 147 146 145 144 143 142 141 141 143 145 145 145 145 146 148 148 148 149 149 150 153 155 157 161 166 195 264 301 315 319 320 319 319 319 318 318 319 319 320 321 322 323 323 324 326 327 327 327 326 325 324 323 322 321 320 319 318
163 163 162 162 161 160 158 155 154 152 150 148 147 146 145 144 143 142 141 141 142 143 144 145 145 146 148 150 150 151 152 154 160 164 169 176 191 229 278 299 309 313 316 316 316 316 317 318 320 321 322 324 325 325 326 327 327 328 327 327 326 325 324 323 322 320 320 319 319
163 163 163 162 161 159 156 154 152 151 149 148 147 146 146 145 144 143 143 142 142 143 144 145 146 147 149 152 154 156 158 160 165 171 180 192 216 251 285 298 307 310 313 314 315 316 318 320 322 324 325 327 328 328 328 329 328 328 328 326 325 325 325 324 323 322 321 321 321
163 163 162 162 160 157 155 153 151 150 148 148 148 147 147 146 145 144 144 144 143 143 144 146 147 149 152 155 158 161 163 166 170 177 190 208 234 264 287 300 307 310 313 314 316 318 319 322 325 327 329 330 331 330 330 329 329 328 327 326 325 325 326 327 326 325 324 324 323
164 164 163 161 159 156 154 152 150 149 149 149 149 148 147 147 145 145 145 144 144 144 145 147 149 152 156 160 163 166 169 172 177 185 199 223 250 275 292 302 308 311 313 315 318 320 323 326 328 330 331 332 332 331 330 330 329 328 327 326 327 328 329 329 329 328 327 326 325
163 163 162 160 158 155 153 151 151 150 149 149 148 148 147 147 146 146 145 144 144 145 147 149 152 156 160 164 167 170 172 176 182 191 205 230 258 283 296 304 309 312 315 318 321 324 327 329 331 332 333 333 333 332 330 329 329 329 328 329 329 330 331 332 332 331 330 328 327
162 162 161 159 156 154 152 151 150 149 148 147 147 147 146 147 147 147 146 146 146 148 149 152 156 159 163 167 170 172 174 179 187 197 214 238 266 288 299 307 311 314 317 321 324 327 330 332 334 334 334 334 333 332 331 330 331 331 331 331 332 333 334 334 335 334 332 330 328
162 162 160 157 155 153 152 150 149 149 148 146 146 146 146 147 147 147 148 148 148 149 151 155 159 163 166 168 170 172 175 181 190 202 223 251 278 295 304 310 314 317 321 324 328 330 332 334 335 335 335 334 334 333 333 332 333 334 334 335 335 335 336 337 337 336 334 331 328
162 160 159 156 154 153 151 149 148 147 147 146 146 146 147 147 148 148 149 151 151 151 153 156 161 165 167 168 169 172 177 183 194 210 236 270 291 303 310 315 318 321 324 327 330 332 334 335 335 336 336 336 335 335 335 335 336 337 337 337 338 338 338 338 338 337 334 332 329
160 159 157 155 154 152 151 149 148 147 147 147 147 147 147 147 148 150 151 153 154 154 154 156 160 163 166 167 169 172 177 185 197 224 258 287 301 309 314 318 321 325 327 330 332 334 335 336 336 336 336 337 337 337 338 339 340 340 340 340 340 340 339 339 338 336 334 331 328
159 157 156 155 153 152 150 149 148 147 147 147 147 147 147 147 149 152 155 156 157 157 156 156 158 160 162 164 167 170 177 186 206 247 281 299 308 313 317 321 324 327 330 332 334 336 338 338 337 337 337 337 338 340 340 342 342 342 342 341 341 340 339 338 337 335 333 331 328
157 156 155 154 153 152 150 149 148 148 148 147 148 148 148 147 150 153 157 158 157 157 157 157 157 158 159 161 164 168 175 189 226 274 297 307 313 317 321 324 327 329 332 334 336 338 339 339 338 338 337 338 339 341 342 343 343 342 342 341 340 339 338 337 336 334 332 330 328
155 155 154 154 153 152 151 150 149 149 148 148 149 149 149 148 151 155 158 158 156 155 156 157 157 157 158 160 162 167 175 201 259 293 306 313 318 321 324 327 329 331 333 337 339 341 341 341 339 338 338 339 340 341 342 342 342 341 341 340 339 338 337 336 335 333 331 329 327
153 153 154 154 153 153 152 151 150 149 149 149 149 150 149 150 152 155 157 157 156 154 154 155 155 156 155 156 160 166 182 234 282 302 312 318 322 325 328 330 331 333 335 338 341 343 343 341 340 339 340 341 342 342 342 341 340 340 339 338 337 335 335 334 333 332 331 329 326
151 153 154 154 154 154 153 152 151 150 149 149 149 150 150 151 152 153 153 154 155 154 153 153 153 154 154 154 157 165 197 263 298 310 317 323 327 329 331 332 333 335 337 339 341 342 342 341 341 342 343 344 344 342 341 340 339 337 336 335 334 333 333 332 332 331 330 329 326
151 153 154 155 155 154 154 152 151 150 149 149 149 150 150 151 151 151 149 149 151 153 154 152 151 152 153 154 158 169 221 287 310 319 324 328 331 332 333 334 335 336 338 340 341 342 341 340 342 345 346 346 344 341 339 338 336 335 333 332 331 331 331 331 331 331 331 328 326
152 153 154 155 155 154 153 152 150 150 149 149 149 148 149 150 150 150 147 146 148 151 152 150 149 150 151 156 162 180 265 312 324 328 332 333 335 335 335 335 335 337 338 340 341 341 341 343 346 349 348 345 341 338 336 335 334 332 330 329 329 329 329 330 331 332 331 329 326
153 154 154 155 154 153 152 151 150 149 148 148 147 147 147 147 148 147 146 145 146 148 148 147 147 146 147 149 154 181 322 331 336 337 337 337 337 336 335 335 335 336 337 339 340 340 342 346 350 351 348 343 339 336 334 333 331 329 328 327 327 327 328 330 331 332 332 330 328
152 153 154 153 152 151 150 149 148 147 146 146 146 145 145 145 146 145 144 144 145 146 145 144 143 142 140 137 123 21 352 346 345 343 341 339 337 335 334 334 334 335 336 339 339 341 345 350 352 349 344 339 335 333 332 330 329 326 325 324 325 326 328 330 331 333 333 331 329
152 152 151 151 150 149 148 147 147 146 145 145 144 145 144 144 144 144 143 143 144 144 143 142 140 138 131 114 68 20 4 358 351 345 341 338 336 335 333 333 333 334 336 338 340 344 349 351 349 344 339 335 332 331 330 328 326 324 323 323 325 326 328 330 331 332 333 332 329
151 150 149 149 148 147 147 146 146 145 144 144 144 144 144 144 144 143 143 143 143 143 141 139 136 129 116 92 58 27 10 360 351 344 339 336 335 334 333 333 333 335 337 338 343 349 352 347 341 337 334 331 330 328 327 325 324 322 322 323 325 327 329 330 331 331 332 331 329
150 149 148 147 146 146 146 146 145 144 143 143 144 144 144 143 143 143 142 142 142 141 139 135 129 119 101 79 52 23 3 350 344 341 338 336 334 334 333 334 335 336 338 340 347 351 350 340 336 333 331 329 327 325 325 323 322 321 322 324 326 329 330 331 330 330 330 330 329
148 147 146 146 145 145 145 145 144 143 143 143 143 143 142 142 142 143 142 141 139 137 134 129 121 110 91 66 35 9 350 341 336 336 337 336 336 335 335 335 336 337 339 342 348 350 347 339 335 333 330 327 325 324 323 321 321 321 322 324 327 329 331 330 329 328 328 329 329
147 145 145 145 145 144 144 144 143 142 141 142 142 141 141 141 142 142 141 139 136 133 130 124 115 102 81 52 18 355 343 337 336 335 336 336 336 336 336 336 338 339 341 343 347 348 344 339 335 333 331 328 325 323 322 320 320 320 322 324 326 329 329 329 327 326 326 327 328
145 145 144 144 144 143 143 143 142 140 140 141 140 140 140 141 142 141 139 136 134 130 126 119 108 90 66 37 360 343 338 337 338 338 337 336 336 336 337 338 339 340 342 344 346 346 342 337 334 333 331 329 325 323 320 320 320 320 322 324 326 327 327 326 325 324 324 324 325
145 144 144 143 142 142 141 141 140 139 139 140 140 140 140 141 141 139 137 134 132 128 121 111 95 77 53 17 350 342 341 341 339 339 338 337 337 338 338 339 340 341 342 343 345 344 341 336 333 332 330 329 325 322 319 319 319 320 322 323 324 325 324 323 322 321 322 322 322
144 144 143 142 141 141 140 140 139 139 140 140 140 141 141 140 139 138 136 134 129 120 108 94 84 78 49 7 354 350 348 344 341 339 338 338 339 339 340 341 341 341 341 343 344 343 339 334 333 331 330 329 326 321 319 318 318 319 321 322 322 323 322 320 320 319 319 319 319
144 143 143 141 140 140 139 139 139 139 140 140 141 141 141 140 138 136 133 128 118 106 93 85 104 106 35 6 360 356 351 345 341 339 339 339 340 341 341 342 341 341 341 342 343 341 337 334 332 331 330 329 326 321 318 317 317 318 319 320 320 320 319 318 317 317 317 317 317
144 143 142 141 139 139 139 138 139 139 140 141 141 142 141 138 135 130 124 115 105 102 114 139 134 78 33 13 3 355 350 345 343 341 340 340 341 342 342 342 342 341 341 342 342 339 335 333 332 331 330 328 325 320 317 316 316 317 318 318 318 317 317 316 315 315 315 316 315
143 143 141 140 139 138 138 138 139 140 140 141 142 141 138 133 128 121 116 114 121 137 144 134 98 48 24 11 2 355 350 346 344 342 342 342 342 342 343 342 342 342 342 342 340 337 335 333 332 331 329 327 324 319 317 317 317 317 317 317 317 316 315 314 314 314 314 314 314
143 142 141 140 139 139 139 139 140 141 141 140 138 136 132 127 124 124 129 138 149 149 138 101 49 24 11 2 356 353 349 347 345 344 343 342 342 342 343 343 342 342 342 341 339 337 335 334 333 331 329 327 323 320 318 318 318 317 317 316 316 315 313 313 313 313 312 312 312
144 143 141 140 139 139 139 140 141 141 140 138 134 131 130 131 137 143 147 146 143 130 103 57 26 11 2 355 350 349 348 348 347 345 343 342 342 342 343 343 343 342 342 341 339 337 336 335 333 331 329 326 322 321 320 320 318 317 316 316 315 314 313 313 312 311 311 310 310
145 143 141 140 140 140 141 141 142 141 140 137 135 134 138 148 153 149 142 135 124 102 73 42 20 7 360 355 350 348 348 348 347 345 343 342 342 342 342 342 343 343 342 341 340 339 338 336 333 331 329 326 323 322 321 320 317 315 314 314 314 313 313 312 311 309 308 309 312
146 144 142 141 141 141 142 143 143 142 141 140 141 145 150 152 148 141 133 122 108 83 50 25 12 2 357 354 352 350 348 347 346 345 344 342 342 342 342 342 343 343 342 342 340 340 339 337 334 331 329 326 324 323 321 319 316 314 314 314 313 313 313 311 309 307 306 310 315
146 144 143 142 142 143 144 145 146 145 145 146 149 151 152 149 140 131 122 109 85 53 29 13 4 358 355 353 353 351 349 347 345 345 344 343 343 343 343 343 343 343 343 342 341 340 340 338 334 331 329 326 324 322 321 318 316 315 315 314 313 313 311 309 307 305 307 314 317
146 145 144 143 144 144 146 147 148 149 149 150 149 148 146 140 129 118 108 90 56 29 14 6 360 355 352 351 351 351 349 347 345 344 345 345 345 345 345 344 343 342 342 341 341 341 341 337 333 331 329 326 324 322 320 318 316 315 315 315 315 313 311 308 307 310 315 319 319
146 146 146 145 145 146 147 147 147 148 148 147 144 141 136 128 116 104 88 64 35 17 6 0 356 352 350 348 348 347 346 345 344 345 346 347 347 347 346 344 342 341 341 341 341 342 341 336 332 330 329 326 324 323 321 319 317 316 316 316 315 313 310 310 315 320 321 321 321
147 147 147 146 147 147 147 146 144 143 143 141 137 133 127 118 105 90 71 46 26 11 2 358 353 350 348 346 344 342 342 343 344 345 346 348 348 348 346 344 342 341 341 341 342 343 340 335 332 330 329 327 326 324 322 320 318 317 316 315 313 310 311 318 324 325 323 321 319